RADUGA 24 (20367 NORAD) Tracking and Keplerian Element Data

This shows tracking and keplerian element data for the satellite.

Feedback or suggestion? Click here.




ElementValue
Catalog20367
NameRADUGA 24
Epoch Orbit12802
Epoch Day33.90793343
Epoch Year2025
RAAN337.3671
Inclination13.0426
Eccentricity0.0002601
Argument of Perigee258.5529
Mean Anonmoly275.2963
Mean Motion1.00232152
Decay Rate9.3E-07
L11 20367U 89098A 25033.90793343 .00000093 00000+0 00000+0 0 9993
L22 20367 13.0426 337.3671 0002601 258.5529 275.2963 1.00232152128024



Live tracking and technical data element details for RADUGA 24 (NORAD 20367). RADUGA 24 can be tracked NOW for your location showing map with azimuth and elevation plus other details from your city location.







IsCatalogInMostPopularTable: catalog: 20367, numindb: 349
Update: records affected: 1



GetName: 20367 RADUGA 24

Hit Count: updated at: Sat, 24 May 2025 15:56:50 GMT